Portada
METAR-TAF:

METAR-TAF

Aeroports :

Aeroport de Beni Mellal

Beni Mellal, Marroc

latitud: 32-24-00N, longitud: 06-19-00W, altitud: 518 m

Observació

L'informe es va fer fa 28 minuts, a les 06:00 UTC
Vent 2 kt del Nord
Temperatura 10°C
Humitat 100%
Pressió 1025 hPa
Visibilitat: 8000 m
Cel ennuvolat a una alçada de 2600 ft

METAR: GMMD 140600Z 36002KT 8000 BKN026 10/10 Q1025 NOSIG

Hora: 06:28 (06:28 UTC)


TAF: manca

Observacions i pronòstics meteorològics de més de 4000 aeroports (METAR i TAF).

Les estacions disponibles són els punts grocs i vermells al mapa.

Posi el ratolí al punt desitjat per veure el nom de l'estació.

Feu clic per veure les observacions i els pronòstics meteorològics.

Per canviar el mapa: feu clic els botons verds amb una creu de color negre per apropar; al botó verd amb un guió per allunyar la imatge; o en les fletxes verdes per a mapes adjacents.


METAR-TAF: